This demonstration page uses our WeatherBlox Daily Observations layout. Learn more.

Left ArrowRight Arrow

39.08367, -84.50855

Hourly Observations for March 11, 2018

Temp ( °F °C ) Dew Point ( °F °C ) Humidity (%) Winds ( mph kmh ) Pressure ( in mb ) Visibility ( mi km ) Precip ( " mm )
12:53 am 00:53 Mostly Clear 34 1.1 23 -5 64 64 NE 9 15 30.12 1020 10 16.0934 0 0
1:53 am 01:53 Clear 32 0 23 -5 69 69 NE 9 15 30.12 1020 10 16.0934 0 0
3:53 am 03:53 Clear 31 -0.6 22 -5.6 69 69 NE 6 9 30.11 1020 10 16.0934 0 0
4:53 am 04:53 Clear 30 -1.1 22 -5.6 72 72 NE 6 9 30.1 1019 10 16.0934 0 0
5:53 am 05:53 Clear 29 -1.7 21 -6.1 72 72 ENE 5 7 30.13 1020 10 16.0934 0 0
6:53 am 06:53 Clear 29 -1.7 21 -6.1 72 72 NE 6 9 30.14 1021 10 16.0934 0 0
7:53 am 07:53 Clear 30 -1.1 20 -6.7 66 66 ENE 6 9 30.14 1021 10 16.0934 0 0
8:53 am 08:53 Sunny 31 -0.6 21 -6.1 67 67 NE 7 11 30.16 1021 10 16.0934 0 0
9:53 am 09:53 Partly Cloudy 34 1.1 21 -6.1 59 59 ENE 9 15 30.16 1021 10 16.0934 0 0
10:53 am 10:53 Sunny 37 2.8 21 -6.1 52 52 NE 16 26 30.14 1021 10 16.0934 0 0
11:53 am 11:53 Mostly Cloudy 40 4.4 22 -5.6 49 49 ENE 12 19 30.13 1020 10 16.0934 0 0
12:53 pm 12:53 Partly Cloudy 43 6.1 23 -5 45 45 ENE 12 19 30.12 1020 10 16.0934 0 0
1:53 pm 13:53 Mostly Cloudy 44 6.7 23 -5 43 43 ENE 12 19 30.1 1019 10 16.0934 0 0
2:53 pm 14:53 Mostly Cloudy 45 7.2 22 -5.6 40 40 NNE 13 20 30.08 1019 10 16.0934 0 0
3:53 pm 15:53 Mostly Cloudy 46 7.8 24 -4.4 42 42 NE 13 20 30.05 1018 10 16.0934 0 0
4:53 pm 16:53 Sunny 45 7.2 23 -5 42 42 NNE 15 24 30.03 1017 10 16.0934 0 0
5:53 pm 17:53 Mostly Cloudy 44 6.7 23 -5 43 43 NNE 14 22 30.03 1017 10 16.0934 0 0
6:53 pm 18:53 Cloudy 43 6.1 23 -5 45 45 NNE 12 19 30.04 1017 10 16.0934 0 0
7:53 pm 19:53 Cloudy 42 5.6 24 -4.4 49 49 NE 8 13 30.03 1017 10 16.0934 0 0
8:53 pm 20:53 Cloudy 42 5.6 24 -4.4 49 49 NE 14 22 30.04 1017 10 16.0934 0 0
9:53 pm 21:53 Cloudy 41 5 25 -3.9 53 53 NE 13 20 30.05 1018 10 16.0934 0 0
10:53 pm 22:53 Cloudy 40 4.4 25 -3.9 55 55 NNE 15 24 30.05 1018 10 16.0934 0 0
11:53 pm 23:53 Cloudy 39 3.9 25 -3.9 57 57 N 10 17 30.04 1017 10 16.0934 0 0

Powered by AerisWeather